STARLINK-11393, 62016

Orbit data source: Space-Track

STARLINK-11393, 62016 is a payload satellite owned by SpaceX/Seattle (US) in LEO that was launched on Mon, 18 Nov 2024 UTC via an FALCON 9 launch vehicle from the Air Force Western Test Range (AFWTR). Payloads include a variety of satellites, spacecraft, and rockets equipped with specific instruments for various scientific and technological missions. These include communications satellites like Starlink; space stations such as the ISS; scientific satellites like the Hubble; Earth observation satellites from companies like Planet Labs, Umbra, and HawkEye 360; GPS; miniature CubeSats for education and research; and military/defense satellites.

Not visible in the next 10 days
STARLINK-11393 details
Identifier
62016, 2024-213J
Orbit
LEO
Last TLE update11 hours ago
Origin
Flag of USSpaceX/Seattle (US)
ManufacturerSpaceX/Seattle
MissionOperational spacecraft
Bus & MotorSTARLINK V2M, Unknown motor
Mass730 kg wet, ~700 kg dry
Launch date (UTC)
2024-11-18 (2 weeks ago)
Launch vehicle
FALCON 9
Launch site
Air Force Western Test Range (AFWTR)
Object type
Payload
Rocket body
Debris
Shape & HBRUnknown
Radar Cross SectionLarge (>1 m²)

Expand to show TLE details & history

TLE from 11 hours ago
0 STARLINK-11393
1 62016U 24213J   24337.03090382  .00073299  00000-0  23604-3 0  9999
2 62016  53.1618 166.1073 0000761 168.6039 191.5005 15.90286788  3134
Epoch: 2024-12-02T00:44Z
Definitive object data (Epoch: 2024-12-02T00:44:30.09Z)
Latitude-0.00001°
Longitude83.62131°
Altitude302.901 km
Speed7.727 km/s
True Right ascension11h 04m 25s
True Declination0° 00' 00"
Sunlit
Object was in daylight at TLE epoch
Visualization TLE readout
Latitude47.2038°
Longitude134.89124°
Altitude306.577 km
Speed7.73 km/s
Apparent Right ascension18h 06m 02s
Apparent Declination7° 50' 29"
Sunlit
Object is in daylight
Visualization observer readout
Local Sidereal Time09:21:19
Azimuth54.941° ENE
Elevation-24.379°
Doppler factor1
Orbital elements
Apogee altitude302.251 km
Perigee altitude301.234 km
Semi-major axis6,679.879 km
Eccentricity0.0000761
Inclination53.1618°
RAAN166.1073°
Arg. of periapsis168.6039°
True anomaly191.49876°
Mean anomaly191.5005°
Eccentric anomaly191.49963°
Mean motion3.97549 °/min
BSTAR0.00023604
Orbital period90.55 mins
Loading maneuver chart data...
Loading historical data...
Loading historical data...
Loading historical data...
Loading historical data...
Loading historical data...
Loading historical data...
Loading historical data...

STARLINK-11393 Visibility forecast

Observer location: undefined°, undefined

STARLINK-11393 is not visible in the next 10 days
Span
Click to sort rows by Start time (UTC) header in descending order
Start Az.
Max El. time (UTC)
Max El. Az.
Max El.
End time (UTC)
End Az.
|